Location: *
(38.5396°S, 104.9448°E)
Time: 02:59:33
(UTC+00:00)

Daily predictions for brighter satellites

Satellite Brightness Start Highest point End
(mag) Time Altitude Azimuth Time Altitude Azimuth Time Altitude Azimuth
STARLINK-1281 4.5 10:10:54 10° WNW 10:14:56 45° SW 10:19:01 10° SE
CZ-4B R/B 4.1 10:10:14 10° SE 10:15:01 29° E 10:19:47 10° NNE
Cosmos 1743 Rocket 4.1 10:11:31 10° NNW 10:15:52 64° W 10:20:19 10° S
STARLINK-68 3.7 10:12:10 10° NNW 10:15:53 53° NE 10:19:39 10° ESE
ADEOS Rocket 3.7 10:08:58 10° NNE 10:16:29 85° ESE 10:24:24 10° SSW
H-2A R/B 4.0 10:13:34 10° SE 10:16:43 23° E 10:19:51 10° NNE
STARLINK-1051 4.4 10:13:22 10° NNW 10:17:16 40° NE 10:21:13 10° ESE
USA 234 4.2 10:11:16 10° SE 10:17:24 42° SSW 10:23:30 10° W
STARLINK-63 3.7 10:13:50 10° NNW 10:17:35 53° NE 10:21:21 10° ESE
STARLINK-35 3.8 10:15:16 10° NNW 10:18:59 52° NE 10:22:45 10° ESE
Cosmos 1484 Rocket 4.2 10:16:53 10° S 10:20:31 38° WSW 10:24:02 10° NW
STARLINK-51 3.7 10:17:04 10° NNW 10:20:49 55° NE 10:24:36 10° ESE
Cosmos 158 Rocket 4.2 10:16:51 10° N 10:21:48 51° ENE 10:26:58 10° SSE
STARLINK-30 3.7 10:18:41 10° NNW 10:22:26 56° NE 10:26:14 10° ESE
Sich 1 3.4 10:18:19 10° NNE 10:22:28 44° E 10:26:44 10° SSE
Okean O Rocket 2.5 10:19:21 10° SE 10:23:18 30° E 10:27:13 10° NNE
STARLINK-72 3.6 10:20:30 10° NW 10:24:17 59° NE 10:28:07 10° SE
Cosmos 1346 Rocket 2.9 10:21:29 10° N 10:25:26 84° W 10:29:27 10° S
SL-16 R/B 4.0 10:25:32 10° ENE 10:26:29 10° E 10:27:26 10° E
Cosmos 2112 Rocket 4.2 10:21:44 10° N 10:26:56 58° ENE 10:32:10 10° SSE
STARLINK-1028 4.1 10:23:10 10° NNW 10:27:12 49° NE 10:31:11 11° ESE
STARLINK-59 3.5 10:23:41 10° NW 10:27:30 68° NE 10:31:18 10° SE
STARLINK-56 3.5 10:25:20 10° NW 10:29:08 67° NE 10:32:51 11° SE
Shenzhou-11 Module 2.3 10:27:04 10° W 10:29:34 41° SSW 10:31:43 13° ESE
PSLV R/B 4.0 10:25:51 10° SSE 10:30:03 87° WSW 10:34:08 10° NNW
Starlink 7 placeholder 2.7 10:27:04 10° SW 10:30:05 63° SE 10:32:55 10° ENE
STARLINK-73 3.5 10:27:00 10° NW 10:30:49 69° NE 10:34:28 11° SE
Cosmos 2333 Rocket 2.6 10:25:08 10° NNW 10:30:53 70° WSW 10:36:42 10° SSE
Cosmos 1934 Rocket 4.3 10:25:38 10° NNW 10:31:57 76° W 10:38:26 10° S
STARLINK-1021 3.9 10:28:05 10° NNW 10:32:09 55° NE 10:35:58 12° ESE
STARLINK-38 3.4 10:28:38 10° NW 10:32:28 72° NE 10:36:04 12° SE
SMAP 4.1 10:30:04 10° SE 10:34:00 26° E 10:37:53 10° NNE
STARLINK-65 3.4 10:30:20 10° NW 10:34:09 75° NE 10:37:42 12° SE
STARLINK-24 3.5 10:31:58 10° NW 10:36:01 84° NE 10:39:45 12° SE
STARLINK-25 3.3 10:32:32 10° NW 10:36:15 76° NE 10:39:34 13° SE
STARLINK-53 3.4 10:32:35 10° NW 10:36:30 83° NE 10:40:01 13° SE
STARLINK-1019 3.8 10:33:01 10° NW 10:37:07 61° NE 10:40:45 13° ESE
Cosmos 2278 Rocket 2.8 10:32:43 10° S 10:37:53 34° ESE 10:43:00 10° ENE
Cosmos 1844 Rocket 3.8 10:33:30 10° SSW 10:38:58 49° WNW 10:44:24 10° N
Meteor 1-10 Rocket 4.2 10:33:48 10° S 10:39:29 70° E 10:45:12 10° NNE
STARLINK-1012 3.7 10:37:56 10° NW 10:42:05 68° NE 10:45:32 15° SE
Cosmos 1605 Rocket 4.0 10:36:59 10° N 10:43:14 85° E 10:49:28 10° S
STARLINK-52 4.2 10:41:44 10° SSW 10:44:30 24° SSE 10:45:57 18° ESE
SJ-7 4.3 10:41:30 10° SSE 10:45:33 71° E 10:49:33 10° N
BREEZE-M DEB (TANK) 3.9 10:41:36 10° SW 10:45:34 53° SE 11:00:13 10° ENE
BREEZE-M DEB (TANK) 4.3 10:42:23 10° N 10:45:41 31° ENE 10:53:18 14° ESE
Cosmos 2360 Rocket 4.4 10:43:26 10° W 10:47:35 20° SW 10:51:45 10° S
YAOGAN 6 3.9 10:46:10 15° SE 10:48:10 23° E 10:51:07 10° NNE
Cosmos 1666 Rocket 3.6 10:45:10 10° N 10:49:29 60° E 10:53:50 10° SSE
Cosmos 2056 Rocket 4.0 10:44:31 10° S 10:49:31 38° ESE 10:54:22 10° NE
DMSP B5D1-3 4.5 10:45:54 10° NNE 10:51:03 76° ESE 10:56:17 10° S
Cosmos 1633 Rocket 3.2 10:47:07 10° NNE 10:51:25 51° E 10:55:47 10° SSE
STARLINK-1026 3.6 10:47:51 10° NW 10:52:02 83° NE 10:55:07 18° SE
STARLINK-50 3.6 10:48:17 10° NW 10:52:21 76° SW 10:55:25 17° SE
H-2A R/B 4.3 10:49:55 10° S 10:53:35 30° WSW 10:57:06 10° NW
NOAA 6 4.0 10:50:31 10° SSE 10:55:43 90° WSW 11:00:53 10° NNW
CZ-2C R/B 4.3 10:58:14 14° SE 10:58:14 14° SE 10:59:49 10° SSE
STARLINK-1013 3.6 10:52:47 10° NW 10:56:59 89° SW 10:59:51 20° SE
Cosmos 1818 3.5 10:52:19 10° NNW 10:57:43 81° ENE 11:02:42 12° SSE
Cosmos 1862 4.3 10:55:33 10° NNW 10:59:27 49° W 11:03:27 10° S
SL-24 R/B 4.4 10:54:57 10° N 11:00:04 88° W 11:05:00 10° S
STARLINK-1009 3.7 10:57:46 10° NW 11:01:57 81° SW 11:04:38 22° SE
SL-4 R/B 2.0 11:03:08 10° SW 11:06:56 74° NW 11:10:59 10° NE
STARLINK-1015 3.7 11:02:46 10° NW 11:06:57 74° SW 11:09:26 24° SE
Cosmos 1680 Rocket 4.4 11:02:34 10° NW 11:07:42 50° WSW 11:12:53 10° S
Cosmos 2219 Rocket 3.7 11:05:28 10° NW 11:10:39 35° WSW 11:15:54 10° S
STARLINK-1016 3.8 11:07:46 10° WNW 11:11:56 67° SW 11:14:13 26° SE
ATLAS 2AS CENTAUR R/B 4.0 11:08:30 10° S 11:12:53 18° SE 11:13:30 18° SE
STARLINK-81 4.1 11:11:55 10° WNW 11:15:42 49° SW 11:17:38 26° SSE
STARLINK-60 3.4 11:12:29 10° SW 11:15:44 63° NW 11:17:54 19° NE
Cosmos 1812 3.3 11:12:33 10° SSW 11:16:25 60° W 11:20:14 10° N
STARLINK-1008 4.0 11:12:46 10° WNW 11:16:55 61° SW 11:19:00 28° SSE
STARLINK-54 4.3 11:13:19 10° WNW 11:17:02 43° SW 11:18:55 25° SSE
STARLINK-77 4.2 11:14:43 10° WNW 11:18:29 46° SW 11:20:16 26° SSE
Cosmos 1238 Rocket 3.0 11:15:11 10° N 11:19:55 82° W 11:23:52 10° S
Cosmos 2100 Rocket 3.9 11:14:01 10° N 11:20:10 66° E 11:26:21 10° SSE
STARLINK-1014 4.1 11:17:47 10° WNW 11:21:56 56° SW 11:23:50 29° SSE
Cosmos 1420 Rocket 4.4 11:18:07 10° S 11:23:09 39° ESE 11:25:33 25° ENE
STARLINK-79 4.4 11:19:37 10° WNW 11:23:19 42° SW 11:24:54 27° SSE
Helios 1A Rocket 2.9 11:21:53 30° SE 11:23:42 57° E 11:27:41 10° N
Cosmos 1461 2.6 11:20:44 10° SSW 11:24:40 64° ESE 11:26:03 36° NE
STARLINK-78 4.4 11:21:08 10° WNW 11:24:47 41° SW 11:26:17 28° SSE
Cosmos 1980 3.9 11:20:14 10° NNW 11:25:53 70° WSW 11:31:16 12° SSE
Lacrosse 5 rocket 1.5 11:21:55 10° NNW 11:26:08 61° NE 11:27:19 43° ESE
STARLINK-1010 4.4 11:22:29 10° WNW 11:26:39 49° SW 11:28:28 29° SSE
STARLINK-1025 4.2 11:22:50 10° WNW 11:26:55 51° SW 11:28:35 31° SSE
STARLINK-49 4.5 11:24:29 10° WNW 11:28:08 38° SW 11:29:30 28° S
Envisat 2.9 11:23:13 10° SSE 11:28:24 86° ENE 11:33:31 10° NNW
STARLINK-1032 4.4 11:25:30 10° NNW 11:29:18 34° NE 11:29:21 34° NE
STARLINK-1017 4.4 11:27:49 10° WNW 11:31:52 47° SW 11:33:20 32° SSE
Meteor 1-20 Rocket 4.2 11:28:25 10° N 11:34:03 63° E 11:39:06 14° SSE
STARLINK-1011 4.3 11:30:23 10° NNW 11:34:08 38° NE 11:34:08 38° NE
STARLINK-1037 4.2 11:31:42 10° NNW 11:35:28 40° NE 11:35:28 40° NE
Cosmos 2061 Rocket 4.0 11:31:33 10° NNE 11:37:41 57° E 11:43:27 12° SSE
Cosmos 1470 Rocket 3.6 11:34:10 10° N 11:38:41 85° W 11:42:02 18° S
STARLINK-1036 4.2 11:35:15 10° NNW 11:38:55 42° NE 11:38:55 42° NE
Feng Yun 1-1 Rocket 4.1 11:35:57 21° SSE 11:39:41 68° ENE 11:45:08 10° N
STARLINK-1044 4.1 11:40:09 10° NNW 11:43:42 45° NNE 11:43:42 45° NNE
STARLINK-29 3.7 11:41:19 10° SW 11:43:59 53° WSW 11:43:59 53° WSW
Cosmos 1441 Rocket 3.2 11:42:12 10° N 11:46:11 84° W 11:46:40 68° S
ATLAS 5 CENTAUR R/B 3.0 11:39:33 10° NW 11:46:44 67° SW 11:51:06 24° SSE
Cosmos 2016 Rocket 3.9 11:40:59 10° N 11:47:10 68° E 11:53:32 10° SSE
Cosmos 1864 Rocket 4.5 11:42:09 10° NNE 11:48:07 56° E 11:50:33 35° SSE
Cosmos 1624 Rocket 4.5 11:42:55 10° SSW 11:48:07 61° WNW 11:53:18 10° N
Cosmos 2173 Rocket 4.1 11:42:40 10° N 11:48:59 79° W 11:55:16 10° S
STARLINK-1047 4.1 11:45:05 10° NNW 11:48:30 47° NNE 11:48:30 47° NNE
SL-24 R/B - RUBIN 2 3.9 11:44:36 10° NW 11:49:46 72° WSW 11:51:05 46° SSE
Cosmos 2237 Rocket 3.2 11:48:38 10° NW 11:54:02 44° WSW 11:58:30 15° S
Cosmos 1862 Rocket 4.1 11:49:36 10° SSW 11:54:05 60° W 11:58:32 10° N
